Home   Weather   Iquique   Past weeks

Flag for Chile Past Weather in Iquique, Chile — Yesterday and Last 2 Weeks

Now
64 °F

Overcast.


Feels Like: 64 °F
Forecast: 65 / 74 °F
Wind: 5 mph from East

Location: Iquique / Diego Arac

Current Time: Apr 30, 2017 at 10:28:52 am

Latest Report: Apr 30, 2017 at 9:00 am


Visibility: N/A

Pressure: 29.98 "Hg

Humidity: 73%

Dew Point: 55 °F

Location of IquiqueLocation

Past Weather in Iquique — Graph

°F

Iquique Temperature Yesterday

Maximum temperature yesterday: 68 °F (at 12:00 pm)
Minimum temperature yesterday: 63 °F (at 7:00 am)
Average temperature yesterday: 65 °F

High & Low Weather Summary for the Past Weeks

 TemperatureHumidityPressure
High73 °F (Apr 17, 11:00 am)88% (Apr 15, 11:00 pm)30.09 "Hg (Apr 15, 11:00 pm)
Low57 °F (Apr 16, 4:00 am)53% (Apr 17, 11:00 am)29.86 "Hg (Apr 15, 5:00 pm)
Average67 °F69%29.96 "Hg
* Reported Apr 15 9:00 am — Apr 30 9:00 am, Iquique, Weather by CustomWeather, © 2017

Note: Actual official high and low records may vary slightly from our data, if they occured in-between our weather recording intervals... More about our weather records

Advertising

Iquique Weather History for the Previous 24 Hours

Scroll right to see more
 ConditionsComfort  
Time TempWeatherWind HumidityBarometerVisibility
9:00 am
Sun, Apr 30
64 °FOvercast.5 mph73%29.98 "HgN/A
8:00 am63 °FPartly sunny.7 mph73%29.95 "HgN/A
7:00 am61 °FPassing clouds.7 mph77%29.95 "HgN/A
6:00 am61 °FPassing clouds.7 mph77%29.95 "HgN/A
5:00 am63 °FOvercast.6 mph73%29.95 "HgN/A
4:00 am63 °FOvercast.6 mph73%29.95 "HgN/A
3:00 am63 °FOvercast.7 mph73%29.98 "HgN/A
2:00 am64 °FOvercast.3 mph73%29.98 "HgN/A
1:00 am66 °FOvercast.No wind68%29.98 "HgN/A
12:00 am66 °FOvercast.5 mph73%29.98 "HgN/A
11:00 pm
Sat, Apr 29
66 °FOvercast.3 mph68%30.01 "HgN/A
10:00 pm64 °FOvercast.9 mph78%30.01 "HgN/A
9:00 pm66 °FOvercast.7 mph73%29.98 "HgN/A
8:00 pm66 °FOvercast.9 mph73%29.95 "HgN/A
7:00 pm66 °FPartly sunny.13 mph73%29.95 "HgN/A
6:00 pm66 °FPartly sunny.14 mph73%29.95 "HgN/A
5:00 pm66 °FScattered clouds.16 mph73%29.92 "HgN/A
4:00 pm68 °FScattered clouds.14 mph64%29.92 "HgN/A
3:00 pm68 °FPassing clouds.15 mph64%29.95 "HgN/A
2:00 pm68 °FSunny.12 mph64%29.95 "Hg10 mi
1:00 pm68 °FSunny.6 mph64%29.95 "Hg10 mi
12:00 pm68 °FSunny.9 mph64%29.98 "Hg10 mi
11:00 am66 °FSunny.8 mph68%29.98 "Hg10 mi
10:00 am64 °FSunny.5 mph73%29.98 "Hg10 mi
Weather by CustomWeather, © 2017

See weather overviewHow to use our weather pages